Regional Weather Roundup
Issued by NWS

Home | Current Version | Previous Version | Graphics & Text | Print | Product List | Glossary On
Versions: 1 2 3 4 5 6 7 8 9 10 11 12 13 14 15 16 17 18 19 20 21 22 23 24 25 26 27 28 29 30 31 32 33 34 35 36 37 38 39 40 41 42 43 44 45 46 47 48 49 50
000
ASUS43 KBIS 272102
RWRND

NORTH DAKOTA REGIONAL WEATHER ROUNDUP
NATIONAL WEATHER SERVICE BISMARCK ND
400 PM CDT WED MAY 27 2015

NOTE: "FAIR" INDICATES FEW OR NO CLOUDS BELOW 12,000 FEET WITH NO
SIGNIFICANT WEATHER AND/OR OBSTRUCTIONS TO VISIBILITY.


NDZ001>003-009>011-017-272200-
NORTHWEST NORTH DAKOTA

CITY           SKY/WX    TMP DP  RH WIND       PRES   REMARKS
WILLISTON      LGT RAIN  62  56  80 S15G25    29.94R
MINOT          PTSUNNY   79  50  36 E15G21    29.93S
MINOT AFB      PTSUNNY   78  51  38 E14       29.92F
$$

NDZ018>021-031>035-040>046-272200-
SOUTHWEST NORTH DAKOTA

CITY           SKY/WX    TMP DP  RH WIND       PRES   REMARKS
BISMARCK       PTSUNNY   81  46  29 S17G23    29.93F
DICKINSON      CLOUDY    67  52  58 S16       29.88S THUNDER
GARRISON         N/A     81  43  26 S14       29.91F
HETTINGER ARPT PTSUNNY   72  53  51 S21G29    29.91F
$$

NDZ004>008-012>016-024-026-027-054-272200-
NORTHEAST NORTH DAKOTA

CITY           SKY/WX    TMP DP  RH WIND       PRES   REMARKS
GRAND FORKS    SUNNY     75  50  41 N7        29.97F
GRND FRKS AFB  SUNNY     73  50  43 N8        29.98F
DEVILS LAKE    SUNNY     75  50  41 E10       29.96F
$$

NDZ022-023-025-028>030-036>039-047>053-272200-
SOUTHEAST NORTH DAKOTA

CITY           SKY/WX    TMP DP  RH WIND       PRES   REMARKS
FARGO          SUNNY     81  54  39 NW6       29.96S
JAMESTOWN      MOSUNNY   79  49  34 NE8       29.94F
$$




USA.gov is the U.S. government's official web portal to all federal, state and local government web resources and services.